EDT,Max TemperatureF,Mean TemperatureF,Min TemperatureF,Max Dew PointF,MeanDew PointF,Min DewpointF,Max Humidity, Mean Humidity, Min Humidity, Max Sea Level PressureIn, Mean Sea Level PressureIn, Min Sea Level PressureIn, Max VisibilityMiles, Mean VisibilityMiles, Min VisibilityMiles, Max Wind SpeedMPH, Mean Wind SpeedMPH, Max Gust SpeedMPH,PrecipitationIn, CloudCover, Events, WindDirDegrees
2013-5-1,60,53,46,52,44,34,100,82,39,30.42,30.36,30.28,10,5,0,12,9,18,0.00,7,Fog-Rain,91
2013-5-2,62,53,44,46,41,36,87,67,52,30.42,30.38,30.34,10,10,10,12,7,17,0.00,3,,104
2013-5-3,55,48,42,45,42,37,100,81,58,30.35,30.30,30.26,10,9,0,15,9,24,0.00,5,Fog,95
2013-5-4,55,45,35,43,38,36,100,82,54,30.26,30.20,30.16,10,8,0,18,11,23,0.00,5,Fog-Rain,88
2013-5-5,51,44,37,43,35,25,100,71,43,30.18,30.12,30.08,10,9,0,18,12,28,0.00,4,Rain,89
2013-5-6,48,45,42,48,46,43,100,100,100,30.10,30.04,29.96,0,0,0,20,13,31,0.71,8,Rain-Thunderstorm,85
2013-5-7,51,48,44,52,48,45,100,99,93,30.01,29.98,29.96,10,3,0,16,8,28,0.85,8,Fog-Rain-Thunderstorm,59
2013-5-8,51,48,44,48,46,45,100,97,82,30.07,30.01,29.96,10,4,0,12,6,,0.21,7,Fog-Rain,146
2013-5-9,66,56,46,54,47,43,100,68,43,30.19,30.13,30.04,10,9,0,20,12,26,0.00,4,Fog-Rain,281
2013-5-10,71,63,55,55,52,46,100,75,53,30.19,30.12,30.04,10,10,2,21,9,25,0.24,4,Rain-Thunderstorm,233
2013-5-11,64,58,48,55,52,48,100,87,63,30.04,29.95,29.89,10,9,0,21,15,29,0.17,6,Rain,262
2013-5-12,48,42,37,46,31,25,100,65,43,30.07,29.95,29.88,10,10,0,24,16,36,0.00,3,Rain,290
2013-5-13,46,40,33,30,26,23,87,64,43,30.17,30.10,30.02,10,10,10,20,13,31,0.00,3,Rain,293
2013-5-14,59,44,30,41,30,27,87,58,34,30.22,30.16,30.09,10,10,10,18,8,24,0.00,2,,245
2013-5-15,78,66,55,55,48,43,82,56,32,30.11,30.07,30.02,10,10,10,25,17,33,0.00,0,Rain,267
2013-5-16,71,63,55,59,51,45,100,66,49,30.12,30.07,30.02,10,10,7,24,19,33,0.58,2,Rain-Thunderstorm,280
2013-5-17,69,61,53,57,54,50,100,81,60,30.27,30.21,30.12,10,10,5,15,8,18,0.00,5,Rain,249
2013-5-18,62,60,57,61,58,54,100,98,72,30.29,30.25,30.22,10,4,0,9,5,,0.03,8,Fog-Rain,149
2013-5-19,59,57,55,59,57,55,100,100,100,30.26,30.22,30.18,0,0,0,12,7,,0.71,8,Rain,126
2013-5-20,69,63,57,64,61,57,100,95,73,30.24,30.20,30.17,10,7,0,12,4,,0.91,5,Fog-Rain-Thunderstorm,228
2013-5-21,75,68,60,64,62,61,100,85,61,30.19,30.15,30.10,10,7,0,22,8,21,0.00,3,Fog,245
2013-5-22,75,67,59,63,56,52,94,71,53,30.14,30.09,30.05,10,10,0,17,10,25,0.11,3,Rain-Thunderstorm,231
2013-5-23,69,62,55,61,56,52,94,85,60,30.06,30.01,29.92,10,10,5,29,12,37,0.22,6,Rain-Thunderstorm,249
2013-5-24,55,46,37,54,38,28,100,80,57,30.20,30.06,29.91,10,10,10,26,17,43,0.00,5,,302
2013-5-25,55,42,30,34,26,19,87,55,26,30.27,30.23,30.18,10,10,10,21,16,31,0.00,0,,302
2013-5-26,62,50,39,36,28,18,81,47,19,30.33,30.28,30.24,10,10,10,15,11,21,0.00,0,,301
2013-5-27,59,52,44,52,37,27,82,56,41,30.36,30.32,30.27,10,10,10,10,5,,0.00,4,Rain,144
2013-5-28,75,65,55,61,55,50,94,72,44,30.32,30.28,30.25,10,10,7,18,10,24,0.00,2,,225
2013-5-29,77,68,60,61,57,52,88,70,44,30.35,30.32,30.28,10,10,10,17,13,23,0.00,1,,243
2013-5-30,77,68,60,63,57,52,83,68,41,30.41,30.37,30.33,10,10,10,13,8,18,0.00,0,,205
2013-5-31,75,68,60,63,58,54,88,73,53,30.36,30.32,30.25,10,10,10,15,10,18,0.00,1,,215